Overview Statistics Trail Chart Weather Telemetry Raw packets
 

This is the latest recevied weather packets stored in our database for station/object ES0THZ-13. If no packets are shown the sender has not sent any weather packets the latest 10 day(s).

<< 22 23 24 25 26 27 28 >>
Time Temp. Humidity Pressure Rain* Wind** Luminosity Snow
1787999771 17.78° C 82% 1006 hPa - - - -
1787998646 17.22° C 82% 1006.4 hPa - - - -
1787997576 17.78° C 81% 1006.3 hPa - - - -
1787996542 18.89° C 81% 1006.5 hPa - - - -
1787995361 18.89° C 81% 1006.1 hPa - - - -
1787994261 18.89° C 80% 1006.5 hPa - - - -
1787993203 18.89° C 80% 1006 hPa - - - -
1787992186 18.89° C 81% 1006.6 hPa - - - -
1787991201 18.33° C 81% 1007.1 hPa - - - -
1787990184 18.33° C 81% 1005.9 hPa - - - -
1787989104 18.89° C 81% 1007 hPa - - - -
1787987931 18.89° C 81% 1006.6 hPa - - - -
1787986854 18.33° C 81% 1006.9 hPa - - - -
1787985756 18.33° C 82% 1006.9 hPa - - - -
1787984601 17.78° C 82% 1006.8 hPa - - - -
1787983546 18.33° C 82% 1007.2 hPa - - - -
1787982411 18.33° C 82% 1006.8 hPa - - - -
1787981424 17.78° C 82% 1007.7 hPa - - - -
1787980396 17.78° C 82% 1007.4 hPa - - - -
1787979341 17.78° C 82% 1008.1 hPa - - - -
1787978256 17.78° C 82% 1007.3 hPa - - - -
1787977181 17.78° C 83% 1007.5 hPa - - - -
1787976121 17.78° C 83% 1009.2 hPa - - - -
1787975004 17.78° C 82% 1009.3 hPa - - - -
1787973921 17.78° C 82% 1007.8 hPa - - - -

* Rain since midnight (hover to see other rain measurements)
** Current wind speed in m/s (hover to see current wind gust speed)